Flag for U.S.A. Weather past 2 weeks in Kalispell, Montana, U.S.A.

Now
33 °F

Overcast.


Feels Like: 30 °F
Forecast: 31 / 38 °F
Wind: 3 mph from Northwest

Location: Kalispell - Glacier Park International

Current Time: Dec 20, 2014 at 12:41:27 PM

Latest Report: Dec 20, 2014 at 11:55 AM


Visibility: 10 mi

Pressure: 29.92 "Hg

Humidity: 92%

Dew point: 31 °F

Location of KalispellLocation

Historic Weather in Kalispell — Graph

°F

Kalispell temperature yesterday

Maximum temperature yesterday: 36 °F (at 5:55 PM)
Minimum temperature yesterday: 31 °F (at 12:02 AM)
Average temperature yesterday: 33 °F

Past Weeks' High & Low Weather Summary

 TemperatureHumidityPressure
High44 °F (Dec 7, 1:55 PM)100% (Dec 6, 12:01 AM)30.39 "Hg (Dec 6, 12:01 AM)
Low19 °F (Dec 8, 3:55 AM)70% (Dec 17, 2:55 PM)29.62 "Hg (Dec 12, 12:03 AM)
Average31 °F93%30.08 "Hg
* Reported Dec 5 10:55 AM — Dec 20 10:55 AM, Kalispell, Weather by CustomWeather, © 2014

Note: Actual official high and low records may vary slightly from our data, if they occured in-between our weather recording intervals... More about our weather records

Advertising

Kalispell weather history for previous 24 hours

 ConditionsComfort  
Time TempWeatherWind HumidityBarometerVisibility
10:55 AM
Dec 20
32 °FLow clouds.No wind96%29.95 "Hg7 mi
10:04 AM30 °FIce fog.No wind100%29.89 "Hg1 mi
8:55 AM26 °FIce fog.No wind96%29.98 "Hg0 mi
8:04 AM29 °FOvercast.No wind96%29.91 "Hg7 mi
7:57 AM28 °FIce fog.No wind100%29.91 "Hg2 mi
6:55 AM29 °FPassing clouds.No wind100%30.00 "Hg7 mi
5:55 AM30 °FPassing clouds.3 mph96%30.01 "Hg10 mi
4:55 AM31 °FOvercast.No wind96%30.04 "Hg10 mi
3:55 AM32 °FPassing clouds.No wind96%30.03 "Hg10 mi
2:55 AM35 °FOvercast.6 mph88%30.03 "Hg10 mi
1:55 AM35 °FPassing clouds.7 mph88%30.01 "Hg10 mi
12:55 AM35 °FMostly cloudy.6 mph88%30.02 "Hg10 mi
11:55 PM
Dec 19
35 °FMostly cloudy.9 mph92%30.01 "Hg10 mi
10:55 PM36 °FOvercast.8 mph92%30.00 "Hg10 mi
9:55 PM36 °FOvercast.8 mph92%29.98 "Hg10 mi
8:55 PM36 °FOvercast.9 mph92%29.97 "Hg10 mi
7:55 PM36 °FMostly cloudy.7 mph92%29.96 "Hg10 mi
6:55 PM36 °FPassing clouds.10 mph92%29.96 "Hg8 mi
5:55 PM36 °FFog.12 mph92%29.96 "Hg6 mi
4:55 PM35 °FLight rain. Mostly cloudy.10 mph96%29.96 "Hg10 mi
4:02 PM35 °FLight rain. Fog.13 mph96%29.88 "Hg6 mi
3:55 PM35 °FLight rain. Fog.12 mph96%29.95 "Hg3 mi
3:04 PM34 °FLight rain. Fog.8 mph97%29.86 "Hg2 mi
1:55 PM34 °FLight rain. Fog.3 mph97%29.93 "Hg2 mi
12:55 PM34 °FFog.No wind97%29.93 "Hg2 mi
Weather by CustomWeather, © 2014

See weather overviewHow to use our weather pages